Minot, ND

12:27 AM CDT on October 21, 2017 (GMT -0500)
Minot International

Weather History for KMOT - December, 2012

Change the Weather History Date:

Wednesday, December 5, 2012

  Actual Average Record
Temperature  
Mean Temperature 31 °F 19 °F  
Max Temperature 44 °F 27 °F 60 °F (1913)
Min Temperature 17 °F 11 °F -20 °F (1922)
Degree Days  
Heating Degree Days 34 46  
Month to date heating degree days 182 228  
Since 1 July heating degree days 2266 2286  
Moisture  
Dew Point 22 °F    
Average Humidity 67    
Maximum Humidity 80    
Minimum Humidity 53    
Precipitation  
Precipitation 0.00 in 0.02 in 0.30 in (1926)
Month to date precipitation T 0.07  
Year to date precipitation 13.54 16.88  
Sea Level Pressure  
Sea Level Pressure 29.80 in    
Wind  
Wind Speed 14 mph (South)    
Max Wind Speed 30 mph    
Max Gust Speed 38 mph    
Visibility 10 miles    
Events      
T = Trace of Precipitation, MM = Missing Value Source: NWS Daily Summary

Daily Weather History Graph

Daily Weather History Graph

Search for Another Location

Airport or City:

Trip Planner

Search our weather history database for the weather conditions in past years. The results will help you decide how hot, cold, wet, or windy it might be!

Date:

Astronomy

Dec. 05, 2012 Rise Set
Actual Time 8:20 AM CST 4:51 PM CST
Civil Twilight 7:44 AM CST 5:27 PM CST
Nautical Twilight 7:04 AM CST 6:07 PM CST
Astronomical Twilight 6:26 AM CST 6:44 PM CST
Moon No Moon Rise 12:22 PM CST (12/5)
Length of Visible Light 9h 43m
Length of Day
8h 31m
Waning Gibbous, 59% of the Moon is Illuminated
Dec 5
Waning Gibbous
Dec 6
Last Quarter
Dec 13
New
Dec 19
First Quarter
Dec 28
Full

Hourly Weather History & Observations

Time (CST) Temp. Windchill Dew Point Humidity Pressure Visibility Wind Dir Wind Speed Gust Speed Precip Events Conditions
12:54 AM 18.0 °F 6.9 °F 12.0 °F 78% 30.18 in 10.0 mi SE 9.2 mph - N/A   Clear
1:54 AM 19.0 °F 9.0 °F 12.9 °F 77% 30.14 in 10.0 mi ESE 8.1 mph - N/A   Clear
2:54 AM 21.0 °F 8.6 °F 14.0 °F 74% 30.11 in 10.0 mi SE 12.7 mph - N/A   Clear
3:54 AM 21.9 °F 9.2 °F 14.0 °F 72% 30.05 in 10.0 mi SE 13.8 mph 20.7 mph N/A   Clear
4:54 AM 21.9 °F 8.7 °F 15.1 °F 75% 30.02 in 10.0 mi SSE 15.0 mph - N/A   Clear
5:54 AM 23.0 °F 11.7 °F 16.0 °F 74% 29.99 in 10.0 mi SE 11.5 mph - N/A   Clear
6:54 AM 24.1 °F 13.1 °F 17.1 °F 75% 29.94 in 10.0 mi SE 11.5 mph - N/A   Clear
8:54 AM 27.0 °F 16.1 °F 19.0 °F 72% 29.86 in 10.0 mi SSE 12.7 mph - N/A   Overcast
9:54 AM 27.0 °F 17.3 °F 19.0 °F 72% 29.83 in 10.0 mi SSE 10.4 mph - N/A   Clear
10:54 AM 30.9 °F 21.2 °F 21.0 °F 67% 29.82 in 10.0 mi SSE 12.7 mph - N/A   Clear
11:54 AM 32.0 °F 22.1 °F 21.0 °F 64% 29.77 in 10.0 mi South 13.8 mph - N/A   Clear
12:54 PM 34.0 °F 24.2 °F 21.9 °F 61% 29.71 in 10.0 mi South 15.0 mph - N/A   Clear
1:54 PM 36.0 °F 28.0 °F 23.0 °F 59% 29.65 in 10.0 mi SSE 11.5 mph - N/A   Clear
2:54 PM 37.9 °F 31.5 °F 24.1 °F 57% 29.63 in 10.0 mi SSE 9.2 mph - N/A   Clear
3:54 PM 39.0 °F 30.6 °F 25.0 °F 57% 29.62 in 10.0 mi South 15.0 mph - N/A   Mostly Cloudy
4:54 PM 39.9 °F 32.5 °F 25.0 °F 55% 29.61 in 10.0 mi South 12.7 mph - N/A   Clear
5:54 PM 42.1 °F 36.1 °F 27.0 °F 55% 29.60 in 10.0 mi SSW 10.4 mph 21.9 mph N/A   Mostly Cloudy
6:54 PM 43.0 °F 36.0 °F 28.0 °F 56% 29.62 in 10.0 mi SW 13.8 mph - N/A   Clear
7:54 PM 41.0 °F 33.5 °F 28.0 °F 60% 29.65 in 10.0 mi SW 13.8 mph - N/A   Clear
8:54 PM 44.1 °F 34.8 °F 28.0 °F 53% 29.66 in 10.0 mi West 25.3 mph 31.1 mph N/A   Partly Cloudy
9:54 PM 39.9 °F 31.8 °F 28.9 °F 65% 29.69 in 10.0 mi WSW 15.0 mph 24.2 mph N/A   Clear
10:54 PM 36.0 °F 24.4 °F 28.9 °F 76% 29.71 in 10.0 mi WSW 23.0 mph 31.1 mph N/A   Clear
11:23 PM 37.4 °F 26.4 °F 28.4 °F 70% 29.67 in 10.0 mi West 23.0 mph 32.2 mph N/A   Mostly Cloudy
11:54 PM 35.1 °F 23.3 °F 28.0 °F 76% 29.76 in 10.0 mi West 23.0 mph 31.1 mph N/A   Overcast